SCP
0 0 0 0 0 0 0 0 0 0 0 0 0 0 0 0 0 0 0 0 0 0 -0 -0 -0 0 0 0 0 0 0 0 0 0 0 0 0 0 0 0 0 0 0 0
0 0 0 0 0 0 0 0 0 0 0 0 0 0 0 0 0 0 0 0 0 0 -0 -0 -0 0 0 0 0 0 0 0 0 0 0 0 0 0 0 0 0 0 0 0
-0 0 0 0 0 0 0 0 0 0 0 0 0 0 0 0 0 0 0 0 0 0 0 0 -0 -0 0 0 0 0 0 0 0 0 0 0 0 0 0 0 0 0 0 0
-0 -0 0 0 0 0 0 0 0 0 0 0 0 0 0 0 0 0 0 0 0 0 0 0 0 0 0 0 0 0 0 0 0 0 0 0 0 0 0 0 0 0 0 0
-0 -0 0 0 0 0 0 0 0 0 0 0 0 0 0 0 0 0 0 0 0 0 0 0 0 0 0 0 0 0 0 0 0 0 0 0 0 0 0 0 0 0 0 0
-0 -0 -0 0 0 0 0 0 0 0 0 0 0 0 0 0 0 0 0 0 0 0 0 0 0 0 0 0 0 0 0 0 0 0 0 0 0 0 0 0 0 0 0 0
0 0 0 0 0 0 0 0 0 0 0 0 0 0 0 0 0 0 0 0 0 0 0 0 0 0 0 0 0 0 0 0 -0 0 0 0 0 0 0 0 0 0 0 0
0 0 0 0 0 0 0 0 0 0 0 0 0 0 0 0 0 0 0 0 0 0 0 0 0 0 0 0 0 0 0 0 0 0 0 0 0 0 0 0 0 0 0 0
0 0 0 0 0 0 0 0 0 0 0 0 0 0 0 0 0 0 0 0 0 0 0 0 0 0 0 0 0 0 0 0 0 0 0 0 0 0 0 0 0 0 0 0
0 0 0 0 0 0 0 0 0 0 0 0 0 0 0 0 0 0 0 0 0 0 0 0 0 0 0 0 0 0 0 0 0 0 0 0 0 0 0 0 0 0 0 0
0 0 0 0 0 0 0 0 0 0 0 0 0 0 0 0 0 0 0 0 0 0 0 0 0 0 0 0 0 -0 0 0 0 0 0 0 0 0 0 0 0 0 0 0
0 0 0 0 0 0 0 0 0 0 0 0 0 0 0 0 0 0 0 0 0 0 0 0 0 0 0 0 0 -0 0 0 0 0 0 0 0 0 0 0 0 0 0 0
0 0 0 0 0 0 0 0 0 0 0 0 0 0 0 0 0 0 0 0 0 0 0 0 0 0 0 0 0 0 0 0 0 0 0 0 0 0 0 0 0 0 0 0
0 0 0 0 0 0 0 0 0 0 0 0 0 0 0 0 0 0 0 0 0 0 0 0 0 0 0 0 0 0 0 0 0 0 0 0 0 0 0 0 0 0 0 0
0 0 0 0 0 0 0 0 0 0 0 0 0 0 0 0 0 0 0 0 0 0 0 0 0 0 0 0 0 0 0 0 0 0 0 0 0 0 0 0 0 0 0 0
0 0 0 0 0 0 0 0 0 0 0 0 0 0 0 0 0 0 0 0 0 0 0 0 0 0 0 0 0 0 0 0 0 0 0 0 0 0 0 0 0 0 0 0
0 0 0 0 0 0 0 0 0 0 0 0 0 0 0 0 0 0 0 0 0 0 0 0 0 0 0 0 0 0 0 0 0 0 0 0 0 0 0 0 0 0 0 0
0 0 0 0 0 0 0 0 0 0 0 0 0 0 0 0 0 0 0 0 0 0 0 0 0 0 0 0 0 0 0 0 0 0 0 0 0 0 0 0 0 0 0 0
0 0 0 0 0 0 0 0 0 0 0 0 0 0 0 0 0 0 0 0 0 0 0 0 0 0 0 0 0 0 0 0 0 0 0 0 0 0 0 0 0 0 0 0
0 0 0 0 0 0 0 0 0 0 0 0 0 0 0 0 0 0 0 0 0 0 0 0 0 0 0 0 0 0 0 0 0 0 0 0 0 0 0 0 0 0 0 0
0 0 0 0 0 0 0 0 0 0 0 0 0 0 0 0 0 0 0 0 0 0 0 0 0 0 0 0 0 0 0 0 0 0 0 0 0 0 0 0 0 0 0 0
0 0 0 0 0 0 0 0 0 0 0 0 0 0 0 0 0 0 0 0 0 0 0 0 0 0 0 0 0 0 0 0 0 0 0 0 0 0 0 0 0 0 0 0
0 0 0 0 0 0 0 0 0 0 0 0 0 0 0 0 0 0 0 0 0 0 0 0 0 0 0 0 0 0 0 0 0 0 0 0 0 0 0 0 0 0 0 0
0 0 0 0 0 0 0 0 -0 -0 -0 -0 0 0 0 0 0 0 0 0 0 0 0 0 0 0 0 0 0 0 0 0 0 0 0 0 0 0 0 0 0 0 0 0
0 0 0 0 0 0 0 0 0 0 0 0 0 0 0 0 0 0 0 0 0 0 0 0 0 0 0 0 0 0 0 0 0 0 0 0 0 0 0 0 0 0 0 0
0 0 0 0 0 0 0 0 0 0 0 0 0 0 0 0 0 0 0 0 0 0 0 0 0 0 0 0 0 0 0 0 0 0 0 0 0 0 0 0 0 0 0 0
0 0 0 0 0 0 0 0 0 0 0 0 0 0 0 0 0 0 0 0 0 0 0 0 0 0 0 0 0 0 0 0 0 0 0 0 0 0 0 0 0 0 0 0
Wind_Speed
1 2 2 3 5 7 7 6 6 3 4 4 4 3 4 4 6 7 9 10 10 10 10 9 9 8 8 7 6 4 3 3 4 5 5 6 7 7 8 8 9 10 10 9
4 3 3 5 5 7 6 5 4 3 3 4 5 5 5 5 6 7 8 9 10 10 10 10 10 9 8 7 6 5 5 5 5 5 5 6 7 7 7 8 9 9 10 10
6 4 5 9 7 8 6 5 6 6 4 8 7 6 5 5 5 6 7 8 9 9 10 9 10 9 8 8 7 6 6 6 6 6 6 6 7 7 7 8 9 9 10 11
5 6 10 2 4 3 4 4 3 2 6 8 7 7 5 4 5 5 6 6 7 8 9 9 9 9 8 8 8 8 8 8 7 7 7 7 7 8 8 9 8 9 10 11
6 7 5 3 5 6 6 5 5 6 7 8 8 8 6 4 4 4 5 5 6 7 8 8 9 9 9 8 8 8 9 9 9 8 8 8 8 9 9 8 9 9 10 11
7 8 7 3 7 5 5 6 7 7 8 8 8 6 4 4 2 2 3 4 5 6 7 8 9 9 9 9 9 10 10 10 10 10 9 9 10 10 9 8 9 10 10 11
10 9 5 6 7 8 8 3 9 8 8 8 6 0 5 4 2 2 2 3 4 5 6 7 8 9 9 10 10 11 11 11 11 10 10 10 10 9 9 9 9 10 11 11
8 10 5 9 9 8 2 7 8 8 7 6 4 4 4 3 2 1 1 3 4 4 5 6 8 9 9 10 11 11 11 11 11 11 10 9 10 10 10 9 10 10 11 11
5 1 6 7 5 3 4 6 6 6 6 6 5 5 4 3 2 1 1 2 3 5 6 6 7 9 10 10 11 11 11 11 11 12 10 10 10 10 9 8 8 9 9 9
4 4 5 5 4 5 5 5 5 6 6 6 6 5 4 3 2 2 2 2 3 5 6 7 8 9 9 11 11 12 12 12 11 12 11 11 9 9 9 8 8 9 9 10
6 5 5 6 7 7 6 6 6 6 5 5 5 5 4 3 3 2 2 3 4 5 6 8 8 9 10 10 11 12 12 12 12 11 11 11 10 9 10 10 9 10 10 10
6 7 7 7 8 8 8 7 6 6 6 5 5 5 4 4 3 3 3 4 5 6 7 8 9 9 10 10 11 12 12 11 10 10 10 10 11 11 10 12 13 15 16 16
2 3 3 5 7 8 8 7 6 6 6 5 5 5 5 4 4 4 5 5 6 7 8 9 10 10 10 10 11 12 12 12 10 10 11 11 11 12 13 12 12 14 15 16
5 5 5 7 7 8 7 7 6 6 6 6 5 5 5 5 5 5 6 6 7 8 9 9 10 11 11 11 11 13 13 12 11 10 11 11 12 12 12 13 13 11 11 13
9 8 6 6 7 7 7 7 6 6 6 6 5 5 6 6 7 7 7 7 8 9 10 10 11 11 11 11 12 14 13 11 11 11 12 12 12 12 12 14 13 13 12 11
8 8 7 8 8 8 8 8 8 7 6 6 6 6 7 7 8 8 8 7 9 10 10 11 12 12 11 12 13 12 11 13 13 12 12 12 12 12 12 13 13 12 12 11
10 10 10 10 9 9 9 8 8 7 7 7 7 7 8 8 9 9 9 9 10 11 11 12 12 12 12 13 13 11 11 12 14 13 12 12 12 12 13 13 13 13 12 12
10 9 9 9 8 8 8 8 7 8 7 7 7 8 9 9 10 10 10 10 11 12 12 12 12 12 13 13 12 11 11 12 12 12 12 12 12 13 13 13 14 15 13 12
8 8 8 8 7 7 7 7 7 8 8 7 8 9 10 10 11 11 11 11 12 12 12 12 11 13 14 13 13 11 12 13 13 13 12 13 13 13 13 13 14 14 14 12
7 6 7 6 6 7 7 7 7 8 7 8 8 9 10 11 11 11 11 12 10 10 12 12 13 13 13 13 13 11 13 14 14 13 13 13 13 13 13 14 14 14 14 13
6 6 6 6 6 7 8 8 8 8 8 8 9 10 11 11 11 11 11 11 11 11 12 12 11 11 11 12 14 12 13 13 14 13 13 13 13 14 14 14 14 14 13 13
5 5 6 6 7 7 7 8 8 9 9 9 10 11 11 11 11 11 12 10 11 10 9 10 11 12 13 15 12 13 13 14 13 13 13 13 13 14 14 14 14 13 13 13
5 6 6 7 7 8 8 8 9 9 10 10 10 11 11 10 9 10 11 9 9 10 10 11 12 16 19 15 13 13 13 14 13 13 13 13 13 13 13 15 13 13 13 12
7 7 7 7 7 8 9 9 9 8 9 10 10 11 11 9 9 9 10 10 11 12 11 11 14 18 18 12 12 12 13 13 13 13 13 13 13 13 13 13 13 12 12 14
8 8 8 8 9 8 9 9 9 9 9 8 10 11 10 9 10 10 10 12 12 12 11 13 17 18 15 12 12 12 12 12 13 13 12 13 12 12 13 12 12 12 11 11
8 8 8 9 8 7 7 7 7 7 8 8 8 8 8 8 10 10 9 11 14 13 12 11 12 12 11 12 12 13 13 13 13 12 13 13 13 13 12 12 15 12 11 10
9 8 7 7 7 7 7 7 8 8 8 8 9 9 9 9 9 9 11 10 10 10 10 10 10 11 11 11 12 12 12 12 12 12 12 12 12 11 12 13 11 10 10 9
Wind_Direction
87 99 182 199 192 201 228 252 257 225 181 158 142 119 94 80 67 57 46 38 33 28 24 21 21 18 16 8 360 352 340 317 302 291 281 272 264 258 257 256 257 255 254 251
186 173 212 225 220 215 223 237 228 190 171 124 131 126 112 86 68 56 44 34 28 25 22 16 14 10 9 4 359 349 342 332 322 309 300 287 276 265 261 257 257 256 254 252
225 178 233 236 223 212 205 208 207 211 166 144 146 135 111 85 68 54 41 30 24 21 18 11 8 3 0 357 354 351 346 339 330 317 305 294 287 277 266 259 255 255 254 252
235 210 239 85 78 185 182 184 198 148 137 155 148 133 117 86 67 54 38 26 20 14 12 8 6 3 358 356 355 353 348 339 333 323 311 301 292 282 272 268 262 255 256 254
229 236 244 180 166 172 184 176 173 161 147 145 144 155 142 96 60 47 32 20 14 6 3 3 4 359 354 356 355 353 347 337 331 323 316 306 294 285 279 272 268 261 258 257
219 233 239 158 143 163 197 187 167 170 158 158 171 201 148 120 89 54 32 20 9 2 360 1 360 354 350 352 352 349 341 332 328 323 314 306 298 292 284 273 269 269 264 259
224 235 239 115 141 171 207 159 154 173 169 175 193 156 102 129 120 69 35 15 1 359 1 357 351 348 348 350 349 343 335 329 324 321 315 308 303 296 289 281 275 270 268 262
212 226 212 138 164 196 104 106 152 166 171 175 165 128 137 146 142 88 16 4 352 349 352 348 345 343 343 344 339 334 330 327 324 321 317 312 307 301 295 287 279 273 270 268
219 185 85 152 166 114 122 147 153 162 166 169 171 172 171 174 178 224 317 336 338 338 336 338 342 341 335 335 331 327 325 325 323 321 319 314 310 304 298 289 281 279 275 271
211 193 168 170 168 163 164 157 155 160 165 175 182 181 185 193 207 237 283 317 323 324 327 333 335 332 328 327 324 322 322 322 321 321 322 320 314 305 300 295 290 286 282 278
214 184 176 192 190 176 165 162 163 168 175 182 187 194 200 208 220 243 273 296 308 317 324 324 326 327 328 327 324 320 319 320 320 321 319 315 311 306 299 294 292 289 288 285
215 191 194 184 176 174 174 177 178 179 182 187 196 202 210 220 229 246 271 291 301 310 312 315 320 322 324 323 320 318 319 321 320 317 315 312 310 307 290 275 277 270 267 270
229 163 183 158 171 180 187 187 187 190 193 197 204 210 221 230 235 251 268 282 293 301 305 309 312 314 318 320 318 315 313 314 314 313 312 310 309 309 308 300 276 265 263 262
197 178 186 185 186 188 191 190 193 199 203 208 215 222 231 240 248 258 270 282 290 294 298 302 304 306 311 312 310 308 308 309 306 305 306 305 305 305 304 304 305 301 288 271
202 205 200 185 185 186 187 189 197 206 212 219 225 233 239 247 255 263 273 281 285 288 292 297 298 302 307 306 304 304 304 304 306 306 303 301 301 300 299 299 297 297 298 295
192 195 194 192 191 192 195 202 212 221 225 231 238 246 250 255 262 267 272 277 281 286 291 294 295 299 302 301 300 299 298 296 297 299 299 299 300 299 299 299 299 296 295 296
191 194 195 199 201 204 208 216 226 234 237 241 247 252 255 258 262 266 271 274 278 282 286 289 292 297 298 296 296 296 297 298 295 293 295 298 299 299 299 298 297 295 293 294
208 209 207 206 207 211 218 225 233 239 244 249 252 252 254 258 263 269 273 277 279 281 283 287 293 298 295 294 294 295 295 294 295 295 296 295 298 299 298 297 297 295 294 293
208 211 213 215 218 222 227 233 237 242 245 246 247 251 256 261 265 271 276 278 279 282 286 290 295 291 291 292 294 289 290 292 292 292 292 293 292 293 294 295 296 295 294 292
203 209 214 219 223 229 235 237 240 242 244 247 252 258 262 264 268 272 274 275 275 280 287 293 293 290 291 294 297 291 291 291 292 292 292 293 293 293 294 294 295 294 292 291
204 210 217 224 229 232 235 237 239 242 246 249 253 259 266 270 272 272 273 275 279 283 288 289 284 285 290 297 297 291 290 290 291 291 292 291 291 292 293 294 294 293 291 290
216 220 226 232 236 241 241 243 244 247 250 252 255 260 265 268 271 272 271 273 280 284 283 283 284 289 295 297 290 288 289 290 291 290 290 290 291 292 294 295 294 293 291 290
233 237 238 239 243 249 250 249 248 250 251 253 257 261 265 270 274 275 277 277 280 285 284 283 288 293 294 291 288 289 290 291 291 290 290 290 291 291 292 292 291 291 292 290
244 243 244 245 245 247 250 252 253 253 255 259 260 262 266 270 272 270 274 275 270 275 279 281 282 286 290 287 288 290 291 291 290 289 290 290 290 291 291 291 291 291 290 289
246 244 243 243 244 247 253 257 258 258 259 260 263 264 264 264 269 276 280 282 279 276 278 282 283 286 286 285 287 288 288 288 289 291 290 290 290 289 289 289 290 291 291 288
247 244 244 243 247 252 254 255 256 259 262 265 267 269 270 269 270 272 273 275 277 278 279 283 286 285 284 287 287 288 288 290 291 288 287 288 287 287 288 290 292 291 290 286
248 247 247 248 247 248 252 254 257 261 262 265 272 276 278 278 278 278 279 280 282 283 284 284 285 286 287 287 286 285 286 288 289 288 288 287 287 287 289 291 291 292 292 288